Weather Roundup
Issued by NWS

Home | Current Version | Previous Version | Graphics & Text | Print | Product List | Glossary Off
Versions: 1 2 3 4 5 6 7 8 9 10 11 12 13 14 15 16 17 18 19 20 21 22 23 24 25 26 27 28 29 30 31 32 33 34 35 36 37 38 39 40 41 42 43 44 45 46 47 48 49 50

000
NZUS93 KARX 212010
HRRWXR

CURRENT HOURLY OBSERVATIONS ACROSS
MUCH OF THE UPPER MISSISSIPPI VALLEY
NATIONAL WEATHER SERVICE LA CROSSE WI
300 PM CDT SAT APR 21 2018


...SOUTHEAST MINNESOTA...


CITY           SKY/WX    TMP DP  RH WIND       PRES   REMARKS
ROCHESTER      CLOUDY    50  35  56 CALM      30.38F
ROCHESTER/MAYO CLOUDY    51  30  45 S5        30.38F
WINONA         CLOUDY    55  32  41 SW9       30.36F
AUSTIN         CLOUDY    46  36  66 CALM      30.36F
ALBERT LEA     PTSUNNY   48  28  46 E5        30.36F
DODGE CENTER   FAIR      48  36  61 CALM      30.37F
PRESTON        CLOUDY    49  33  52 CALM      30.38F
OWATONNA       PTSUNNY   52  36  54 S3        30.37F
FARIBAULT      PTSUNNY   54  36  50 CALM      30.37F
$$

...ELSEWHERE IN MINNESOTA...


CITY           SKY/WX    TMP DP  RH WIND       PRES   REMARKS
MINNEAPOLIS    FAIR      58  21  24 CALM      30.36F
INTNL FALLS    FAIR      60  26  27 SW8       30.29F
DULUTH         FAIR      56  18  22 NW5       30.34F
RED WING       FAIR      59  23  25 S9        30.36F
REDWOOD FALLS  CLOUDY    51  35  54 S6        30.35F
MANKATO        CLOUDY    50  37  61 SE6       30.37F
WORTHINGTON    CLOUDY    44  37  76 E5        30.34F
FAIRMONT       MOSUNNY   45  32  60 NE3       30.36F
$$

...SOUTHWEST WISCONSIN...


CITY           SKY/WX    TMP DP  RH WIND       PRES   REMARKS
LA CROSSE      CLOUDY    57  34  41 S8        30.38F
PRAIRIE DU CHI CLOUDY    52  35  51 E5        30.39F
BOSCOBEL       CLOUDY    56  36  47 CALM      30.39F
LONE ROCK      CLOUDY    57  35  43 VRB3      30.39F
PLATTEVILLE    PTSUNNY   54  36  52 E9        30.39F
FORT MC COY    CLOUDY    56  33  41 S7        30.39F
CAMP DOUGLAS   PTSUNNY   54  32  43 W6        30.39S
MAUSTON-NEW LI CLOUDY    54  32  43 W7        30.39S
VIROQUA        CLOUDY    51  39  62 E5        30.38F
WIS DELLS      CLOUDY    50  29  43 W7        30.41S
$$

...ELSEWHERE IN WISCONSIN...


CITY           SKY/WX    TMP DP  RH WIND       PRES   REMARKS
MILWAUKEE      CLOUDY    53  22  29 E7        30.43S
MADISON        CLOUDY    53  30  41 CALM      30.41F
GREEN BAY      FAIR      51  24  34 S7        30.40F
EAU CLAIRE     FAIR      59  30  33 W10G17    30.35F
BLACK RVR FLS  FAIR      58  28  31 SW6       30.37F
MEDFORD        FAIR      51  24  35 S3        30.37S
WAUSAU         FAIR      54  26  34 W6        30.35F
WIS RAPIDS     FAIR      55  27  34 W7        30.38F
MARSHFIELD     FAIR      55  27  34 NW5       30.36F
RICE LAKE      FAIR      53  17  24 W5        30.38F
$$

...NORTHEAST IOWA...


CITY           SKY/WX    TMP DP  RH WIND       PRES   REMARKS
WATERLOO       FAIR      59  31  34 E15G24    30.33F
DUBUQUE        PTSUNNY   55  31  39 SE14      30.37F
DECORAH        CLOUDY    52  34  50 E6        30.37F
MASON CITY     CLOUDY    47  38  71 NE10      30.36F
CHARLES CITY   FAIR      57  36  44 E7G16     30.35F
OELWEIN        FAIR      55  34  44 SE14      30.35F
$$

...ELSEWHERE IN IOWA...


CITY           SKY/WX    TMP DP  RH WIND       PRES   REMARKS
DES MOINES     CLOUDY    57  27  31 E10       30.28F
IOWA CITY      FAIR      60  26  27 E12       30.31F
FORT DODGE     CLOUDY    60  29  30 SE10      30.31F
MARSHALLTOWN   CLOUDY    59  26  28 SE10      30.30F
CEDAR RAPIDS   FAIR      60  27  28 E12       30.31F
$$

...NORTHERN ILLINOIS...


CITY           SKY/WX    TMP DP  RH WIND       PRES   REMARKS
CHICAGO-OHARE  CLOUDY    54  24  31 N5        30.41F
CHICAGO-MIDWAY CLOUDY    50  27  40 NE5       30.42F
MOLINE         FAIR      61  25  25 SE16G26   30.32F
ROCKFORD       LGT RAIN  53  35  50 E5        30.41F
PEORIA         FAIR      61  25  25 E17G24    30.31F
$$

NOTE: "FAIR" INDICATES FEW OR NO CLOUDS BELOW 12,000 FEET WITH NO
SIGNIFICANT WEATHER AND/OR OBSTRUCTIONS TO VISIBILITY. WIND
SPEEDS ARE IN MILES-PER-HOUR.




USA.gov is the U.S. government's official web portal to all federal, state and local government web resources and services.